When you browse on this site, cookies collect data to enhance your experience and personalize the content and advertising you see.
Visit our Privacy Policy to learn more. By continuing to use the site, you agree to this use of cookies and data.
  • în România
  • Lista ţărilor
  • Pe 7 zile
  • Temperatura apei
  • Hartă satelitară
  • Meteo pe hartă
  • Widget-uri
  • user-avatar
    Intrare

    Meteo pe oră la Kostrza

    Astăzi, 15 Februarie, Vineri

    Timp Temperatura Precipitaţii Vânt Presiune Umiditate
    00:00 +2°C° 0 mm 2 m/s 752 mmHg 88%
    01:00 +3°C° 0 mm 1 m/s 752 mmHg 87%
    02:00 +2°C° 0 mm 2 m/s 751 mmHg 86%
    03:00 +2°C° 0 mm 2 m/s 751 mmHg 85%
    04:00 +2°C° 0 mm 2 m/s 751 mmHg 83%
    05:00 +1°C° 0 mm 2 m/s 751 mmHg 82%
    06:00 +1°C° 0 mm 2 m/s 751 mmHg 81%
    07:00 +1°C° 0 mm 2 m/s 751 mmHg 78%
    08:00 +3°C° 0 mm 2 m/s 751 mmHg 75%
    09:00 +4°C° 0 mm 2 m/s 751 mmHg 71%
    10:00 +6°C° 0 mm 2 m/s 751 mmHg 68%
    11:00 +7°C° 0 mm 2 m/s 751 mmHg 65%
    12:00 +8°C° 0 mm 2 m/s 751 mmHg 62%
    13:00 +8°C° 0 mm 3 m/s 751 mmHg 60%
    14:00 +8°C° 0 mm 2 m/s 751 mmHg 62%
    15:00 +8°C° 0 mm 2 m/s 751 mmHg 64%
    16:00 +8°C° 0 mm 2 m/s 750 mmHg 66%
    17:00 +6°C° 0 mm 2 m/s 750 mmHg 67%
    18:00 +5°C° 0 mm 2 m/s 750 mmHg 68%
    19:00 +5°C° 0 mm 1 m/s 750 mmHg 68%
    20:00 +5°C° 0 mm 1 m/s 750 mmHg 66%
    21:00 +5°C° 0 mm 1 m/s 750 mmHg 63%
    22:00 +4°C° 0 mm 1 m/s 750 mmHg 60%
    23:00 +4°C° 0 mm 1 m/s 749 mmHg 58%

    Mâine, 16 Februarie, Sâmbătă

    Timp Temperatura Precipitaţii Vânt Presiune Umiditate
    00:00 +4°C° 0 mm 1 m/s 749 mmHg 56%
    01:00 +4°C° 0 mm 1 m/s 749 mmHg 54%
    02:00 +4°C° 0 mm 1 m/s 749 mmHg 53%
    03:00 +4°C° 0 mm 1 m/s 749 mmHg 51%
    04:00 +4°C° 0 mm 1 m/s 749 mmHg 50%
    05:00 +3°C° 0 mm 2 m/s 749 mmHg 49%
    06:00 +3°C° 0 mm 2 m/s 748 mmHg 48%
    07:00 +3°C° 0 mm 2 m/s 748 mmHg 48%
    08:00 +4°C° 0 mm 2 m/s 748 mmHg 49%
    09:00 +6°C° 0 mm 2 m/s 748 mmHg 50%
    10:00 +8°C° 0 mm 2 m/s 748 mmHg 51%
    11:00 +9°C° 0 mm 2 m/s 748 mmHg 51%
    12:00 +10°C° 0 mm 2 m/s 748 mmHg 51%
    13:00 +12°C° 0 mm 2 m/s 748 mmHg 52%
    14:00 +12°C° 0 mm 2 m/s 747 mmHg 55%
    15:00 +10°C° 0 mm 2 m/s 747 mmHg 58%
    16:00 +9°C° 0 mm 2 m/s 747 mmHg 61%
    17:00 +8°C° 0 mm 2 m/s 747 mmHg 59%
    18:00 +7°C° 0 mm 3 m/s 746 mmHg 57%
    19:00 +4°C° 0 mm 3 m/s 746 mmHg 55%
    20:00 +4°C° 0 mm 3 m/s 746 mmHg 54%
    21:00 +4°C° 0 mm 3 m/s 746 mmHg 53%
    22:00 +4°C° 0 mm 3 m/s 746 mmHg 53%
    23:00 +3°C° 0 mm 3 m/s 746 mmHg 54%

    Poimâine, 17 Februarie, Duminică

    Timp Temperatura Precipitaţii Vânt Presiune Umiditate
    00:00 +3°C° 0 mm 3 m/s 746 mmHg 56%
    01:00 +3°C° 0 mm 3 m/s 746 mmHg 58%
    02:00 +4°C° 0 mm 2 m/s 746 mmHg 59%
    03:00 +3°C° 0 mm 2 m/s 746 mmHg 60%
    04:00 +3°C° 0 mm 2 m/s 746 mmHg 61%
    05:00 +3°C° 0 mm 2 m/s 746 mmHg 61%
    06:00 +3°C° 0 mm 2 m/s 746 mmHg 62%
    07:00 +2°C° 0 mm 2 m/s 746 mmHg 62%
    08:00 +4°C° 0 mm 2 m/s 746 mmHg 61%
    09:00 +6°C° 0 mm 2 m/s 746 mmHg 59%
    10:00 +8°C° 0 mm 1 m/s 746 mmHg 58%
    11:00 +9°C° 0 mm 1 m/s 746 mmHg 56%
    12:00 +11°C° 0 mm 1 m/s 746 mmHg 53%
    13:00 +12°C° 0 mm 1 m/s 745 mmHg 51%
    14:00 +11°C° 0 mm 1 m/s 745 mmHg 55%
    15:00 +11°C° 0 mm 1 m/s 745 mmHg 58%
    16:00 +10°C° 0 mm 1 m/s 744 mmHg 62%
    17:00 +9°C° 0 mm 1 m/s 744 mmHg 63%
    18:00 +8°C° 0 mm 1 m/s 745 mmHg 65%
    19:00 +6°C° 0 mm 1 m/s 745 mmHg 67%
    20:00 +6°C° 0 mm 1 m/s 745 mmHg 65%
    21:00 +6°C° 0 mm 1 m/s 745 mmHg 63%
    22:00 +5°C° 0 mm 1 m/s 745 mmHg 61%
    23:00 +5°C° 0 mm 1 m/s 744 mmHg 60%

    18 Februarie, Luni

    Timp Temperatura Precipitaţii Vânt Presiune Umiditate
    00:00 +4°C° 0 mm 2 m/s 744 mmHg 59%
    01:00 +4°C° 0 mm 2 m/s 744 mmHg 59%
    02:00 +3°C° 0 mm 2 m/s 744 mmHg 59%
    03:00 +4°C° 0 mm 1 m/s 744 mmHg 59%
    04:00 +4°C° 0 mm 1 m/s 744 mmHg 60%
    05:00 +4°C° 0 mm 1 m/s 744 mmHg 60%
    06:00 +4°C° 0 mm 1 m/s 744 mmHg 61%
    07:00 +3°C° 0 mm 1 m/s 743 mmHg 62%
    08:00 +5°C° 0 mm 1 m/s 744 mmHg 60%
    09:00 +7°C° 0 mm 1 m/s 744 mmHg 58%
    10:00 +8°C° 0 mm 1 m/s 744 mmHg 57%
    11:00 +10°C° 0 mm 1 m/s 744 mmHg 54%
    12:00 +11°C° 0 mm 1 m/s 743 mmHg 51%
    13:00 +12°C° 0 mm 1 m/s 743 mmHg 49%
    14:00 +12°C° 0 mm 1 m/s 743 mmHg 52%
    15:00 +11°C° 0 mm 1 m/s 743 mmHg 55%
    16:00 +11°C° 0 mm 1 m/s 742 mmHg 58%
    17:00 +8°C° 0 mm 2 m/s 742 mmHg 60%
    18:00 +7°C° 0 mm 2 m/s 742 mmHg 62%
    19:00 +5°C° 0 mm 2 m/s 742 mmHg 64%
    20:00 +4°C° 0 mm 3 m/s 742 mmHg 64%
    21:00 +4°C° 0 mm 3 m/s 742 mmHg 65%
    22:00 +3°C° 0 mm 3 m/s 742 mmHg 65%
    23:00 +3°C° 0 mm 3 m/s 742 mmHg 68%

    19 Februarie, Marţi

    Timp Temperatura Precipitaţii Vânt Presiune Umiditate
    00:00 +3°C° 0 mm 3 m/s 742 mmHg 70%
    01:00 +3°C° 0 mm 3 m/s 742 mmHg 72%
    02:00 +2°C° 0 mm 3 m/s 741 mmHg 72%
    03:00 +2°C° 0 mm 3 m/s 741 mmHg 72%
    04:00 +2°C° 0 mm 3 m/s 741 mmHg 73%
    05:00 +2°C° 0 mm 3 m/s 741 mmHg 73%
    06:00 +2°C° 0 mm 3 m/s 741 mmHg 73%
    07:00 +2°C° 0 mm 3 m/s 741 mmHg 73%
    08:00 +3°C° 0 mm 3 m/s 741 mmHg 69%
    09:00 +5°C° 0 mm 3 m/s 741 mmHg 65%
    10:00 +8°C° 0 mm 3 m/s 741 mmHg 61%
    11:00 +8°C° 0 mm 4 m/s 741 mmHg 58%
    12:00 +10°C° 0 mm 4 m/s 740 mmHg 56%
    13:00 +11°C° 0 mm 4 m/s 740 mmHg 53%
    14:00 +10°C° 0 mm 4 m/s 740 mmHg 55%
    15:00 +8°C° 0 mm 4 m/s 740 mmHg 58%
    16:00 +8°C° 0 mm 4 m/s 739 mmHg 61%
    17:00 +7°C° 0 mm 4 m/s 740 mmHg 64%
    18:00 +6°C° 0 mm 4 m/s 740 mmHg 68%
    19:00 +5°C° 0 mm 4 m/s 740 mmHg 71%
    20:00 +5°C° 0.1 mm 4 m/s 741 mmHg 77%
    21:00 +5°C° 0.1 mm 4 m/s 741 mmHg 83%
    22:00 +5°C° 0.1 mm 4 m/s 741 mmHg 88%
    23:00 +4°C° 0 mm 4 m/s 742 mmHg 89%

    20 Februarie, Miercuri

    Timp Temperatura Precipitaţii Vânt Presiune Umiditate
    00:00 +3°C° 0 mm 4 m/s 742 mmHg 89%
    01:00 +3°C° 0 mm 4 m/s 742 mmHg 90%
    02:00 +1°C° 0 mm 4 m/s 742 mmHg 89%
    03:00 +1°C° 0 mm 4 m/s 742 mmHg 88%
    04:00 +1°C° 0 mm 4 m/s 742 mmHg 87%
    05:00 0°C° 0 mm 4 m/s 742 mmHg 87%
    06:00 0°C° 0 mm 4 m/s 743 mmHg 87%
    07:00 +1°C° 0 mm 3 m/s 743 mmHg 87%
    08:00 +1°C° 0 mm 4 m/s 743 mmHg 80%
    09:00 +3°C° 0 mm 5 m/s 744 mmHg 73%
    10:00 +5°C° 0 mm 5 m/s 744 mmHg 66%
    11:00 +6°C° 0 mm 5 m/s 744 mmHg 63%
    12:00 +7°C° 0 mm 5 m/s 744 mmHg 59%
    13:00 +8°C° 0 mm 5 m/s 744 mmHg 55%
    14:00 +7°C° 0 mm 5 m/s 744 mmHg 57%
    15:00 +7°C° 0 mm 4 m/s 744 mmHg 60%
    16:00 +7°C° 0 mm 4 m/s 743 mmHg 62%
    17:00 +6°C° 0 mm 4 m/s 744 mmHg 67%
    18:00 +5°C° 0 mm 3 m/s 744 mmHg 72%
    19:00 +4°C° 0 mm 3 m/s 744 mmHg 77%
    20:00 +4°C° 0 mm 3 m/s 744 mmHg 77%
    21:00 +4°C° 0 mm 3 m/s 744 mmHg 77%
    22:00 +4°C° 0 mm 3 m/s 744 mmHg 77%
    23:00 +4°C° 0.1 mm 3 m/s 744 mmHg 78%
    Arată mai mult